Location: Hard
(49.9417°N, 12.0858°E)
Time: 06:36:55
(UTC+00:00)

Cosmos 1570 Rocket - Pass Details

Date: 07 June 2020
Orbit: 764 x 787 km, 74.1° (Epoch: 07 July)

Event Time Altitude Azimuth Distance (km) Brightness Sun altitude
Exits shadow 00:04:57 27° 199° (SSW) 1,462 4.8 -16.3°
Maximum altitude 00:07:56 85° 112° (ESE) 785 4.0 -16.2°
Drops below altitude 10° 00:13:14 10° 25° (NNE) 2,326 7.8 -16.0°
Sets 00:15:36 0° 25° (NNE) 3,254 9.0 -15.9°
